^^
Saratoga-Weather Station Historical Data
Daily Summary for May 15, 2020 Units:  English    Metric   Both
Daily Weekly Monthly Yearly Custom
  High: Low: Average:
Temperature: 66 °F 44.4 °F 55 °F
Dew Point: 42.3 °F 33.8 °F 37.6 °F
Humidity: 67% 35% 53%
Wind Speed: 8.9mph 0mph 2.5mph
Wind Gust: 13mph - -
Wind- - SW
Pressure: 30.2 in 30 in -
Precipitation: 0 in    
Historical Graphs
 
 
Tabular Data for May 15, 2020
Time Temperature Dew Point Pressure Wind Wind Speed Wind Gust Humidity Rainfall Rate (Hourly) solar
00:03 49.8 °F 37.4 °F 30 in Calm   2 mph 62% 0 in 0 W/m2
00:08 49.6 °F 37.6 °F 30 in NW 2 mph 3 mph 63% 0 in 0 W/m2
00:13 49.5 °F 37 °F 30 in WNW 2 mph 3 mph 62% 0 in 0 W/m2
00:18 49.5 °F 37 °F 30 in West 0.9 mph 4 mph 62% 0 in 0 W/m2
00:23 49.3 °F 36.9 °F 30 in West 2.9 mph 4 mph 62% 0 in 0 W/m2
00:28 49.3 °F 36.9 °F 30 in NNW 2.9 mph 3 mph 62% 0 in 0 W/m2
00:33 49.3 °F 37.2 °F 30 in North 2 mph 2 mph 63% 0 in 0 W/m2
00:38 49.1 °F 36.7 °F 30 in NW 4 mph 9 mph 62% 0 in 0 W/m2
00:43 49.1 °F 36.7 °F 30 in NNW 2 mph 5 mph 62% 0 in 0 W/m2
00:48 48.9 °F 36.9 °F 30 in NW 4 mph 9 mph 63% 0 in 0 W/m2
00:53 48.9 °F 36.5 °F 30 in WNW 2.9 mph 8 mph 62% 0 in 0 W/m2
00:58 48.7 °F 36.3 °F 30 in WNW 0.9 mph 4 mph 62% 0 in 0 W/m2
01:03 48.6 °F 36.1 °F 30 in NW 2 mph 3 mph 62% 0 in 0 W/m2
01:08 48.4 °F 36 °F 30 in NNW 4 mph 4 mph 62% 0 in 0 W/m2
01:13 48.2 °F 35.8 °F 30 in West 6.9 mph 10 mph 62% 0 in 0 W/m2
01:18 48 °F 35.6 °F 30 in WNW 4.9 mph 5 mph 62% 0 in 0 W/m2
01:23 48 °F 35.6 °F 30 in WNW 2.9 mph 7 mph 62% 0 in 0 W/m2
01:28 47.8 °F 35.4 °F 30 in WNW 2 mph 4 mph 62% 0 in 0 W/m2
01:33 47.8 °F 35.4 °F 30 in West 2 mph 4 mph 62% 0 in 0 W/m2
01:38 47.8 °F 35.4 °F 30 in NW 2 mph 3 mph 62% 0 in 0 W/m2
01:43 47.8 °F 35.4 °F 30 in NW 2 mph 9 mph 62% 0 in 0 W/m2
01:48 47.7 °F 35.2 °F 30 in West 2 mph 7 mph 62% 0 in 0 W/m2
01:54 47.7 °F 35.2 °F 30 in West 2.9 mph 9 mph 62% 0 in 0 W/m2
01:59 47.7 °F 35.2 °F 30 in WSW 0.9 mph 5 mph 62% 0 in 0 W/m2
02:04 47.5 °F 35.1 °F 30 in NNW 0.9 mph 5 mph 62% 0 in 0 W/m2
02:09 47.3 °F 34.9 °F 30 in WNW 2 mph 5 mph 62% 0 in 0 W/m2
02:14 47.3 °F 34.9 °F 30 in West 2.9 mph 9 mph 62% 0 in 0 W/m2
02:19 47.3 °F 34.9 °F 30 in West 2.9 mph 6 mph 62% 0 in 0 W/m2
02:24 47.1 °F 34.7 °F 30 in NNW 4.9 mph 9 mph 62% 0 in 0 W/m2
02:29 47.1 °F 34.7 °F 30 in NW 4 mph 5 mph 62% 0 in 0 W/m2
02:34 46.9 °F 34.5 °F 30 in WNW 4.9 mph 9 mph 62% 0 in 0 W/m2
02:39 46.9 °F 35.1 °F 30 in NW 2.9 mph 4 mph 63% 0 in 0 W/m2
02:44 46.9 °F 35.1 °F 30 in NNW 2.9 mph 7 mph 63% 0 in 0 W/m2
02:49 46.8 °F 34.9 °F 30 in WNW 2 mph 9 mph 63% 0 in 0 W/m2
02:54 46.8 °F 34.9 °F 30 in North 2.9 mph 4 mph 63% 0 in 0 W/m2
02:59 46.8 °F 34.9 °F 30 in West 2.9 mph 9 mph 63% 0 in 0 W/m2
03:04 46.6 °F 35.1 °F 30 in North 2.9 mph 4 mph 64% 0 in 0 W/m2
03:09 46.6 °F 35.1 °F 30 in NNW 0.9 mph 4 mph 64% 0 in 0 W/m2
03:14 46.6 °F 35.1 °F 30 in NW 2.9 mph 3 mph 64% 0 in 0 W/m2
03:19 46.4 °F 34.9 °F 30 in WNW 2.9 mph 5 mph 64% 0 in 0 W/m2
03:24 46.2 °F 34.7 °F 30 in NW 0.9 mph 1 mph 64% 0 in 0 W/m2
03:29 46.2 °F 34.7 °F 30 in NW 0.9 mph 3 mph 64% 0 in 0 W/m2
03:34 46 °F 34.5 °F 30 in West 2 mph 6 mph 64% 0 in 0 W/m2
03:39 46 °F 34.5 °F 30 in West 2 mph 7 mph 64% 0 in 0 W/m2
03:44 46 °F 34.5 °F 30 in NW 2 mph 4 mph 64% 0 in 0 W/m2
03:49 46 °F 34.5 °F 30 in NNW 4 mph 12 mph 64% 0 in 0 W/m2
03:54 46 °F 34.9 °F 30 in NW 2 mph 4 mph 65% 0 in 0 W/m2
03:59 46 °F 34.5 °F 30 in NW 2 mph 8 mph 64% 0 in 0 W/m2
04:04 45.9 °F 34.7 °F 30 in NW 2 mph 6 mph 65% 0 in 0 W/m2
04:09 45.9 °F 34.7 °F 30 in NW 0.9 mph 8 mph 65% 0 in 0 W/m2
04:14 45.9 °F 34.7 °F 30 in NW 4 mph 8 mph 65% 0 in 0 W/m2
04:20 45.9 °F 35.1 °F 30 in NNW 4 mph 5 mph 66% 0 in 0 W/m2
04:25 45.9 °F 35.1 °F 30 in WNW 4.9 mph 5 mph 66% 0 in 0 W/m2
04:30 45.7 °F 35.1 °F 30 in NNW 2.9 mph 3 mph 66% 0 in 0 W/m2
04:35 45.7 °F 35.1 °F 30 in WSW 2.9 mph 5 mph 66% 0 in 0 W/m2
04:40 45.7 °F 35.1 °F 30 in NNW 2 mph 9 mph 66% 0 in 0 W/m2
04:45 45.5 °F 34.9 °F 30 in East 2 mph 2 mph 66% 0 in 0 W/m2
04:50 45.3 °F 34.7 °F 30 in NW 0.9 mph 5 mph 66% 0 in 0 W/m2
04:55 45.3 °F 34.7 °F 30 in NNE 0.9 mph 4 mph 66% 0 in 0 W/m2
05:00 45.3 °F 35.1 °F 30 in WSW 0.9 mph 3 mph 67% 0 in 0 W/m2
05:06 45.3 °F 34.7 °F 30 in NNW 2 mph 5 mph 66% 0 in 0 W/m2
05:11 45.3 °F 34.7 °F 30 in NNE 2 mph 5 mph 66% 0 in 0 W/m2
05:16 45.3 °F 34.7 °F 30 in Calm   2 mph 66% 0 in 0 W/m2
05:21 45.1 °F 34.5 °F 30 in WNW 2 mph 7 mph 66% 0 in 0 W/m2
05:26 45.1 °F 34.5 °F 30 in NNE 2.9 mph 4 mph 66% 0 in 0 W/m2
05:31 45.1 °F 34.5 °F 30 in WSW 2 mph 9 mph 66% 0 in 0 W/m2
05:36 45.1 °F 34.5 °F 30 in NW 2.9 mph 5 mph 66% 0 in 0 W/m2
05:41 45 °F 34.3 °F 30 in NNW 2.9 mph 10 mph 66% 0 in 0 W/m2
05:46 45 °F 34.3 °F 30 in SSW 2 mph 3 mph 66% 0 in 0 W/m2
05:51 45 °F 34.3 °F 30 in WSW 0.9 mph 9 mph 66% 0 in 0 W/m2
05:56 45 °F 34.3 °F 30 in NNW 4.9 mph 6 mph 66% 0 in 5 W/m2
06:01 44.8 °F 34.2 °F 30 in SW 2 mph 9 mph 66% 0 in 7 W/m2
06:06 44.8 °F 34.2 °F 30 in West 8.1 mph 11 mph 66% 0 in 11 W/m2
06:11 44.6 °F 34 °F 30 in NNE 2 mph 9 mph 66% 0 in 14 W/m2
06:16 44.6 °F 34 °F 30 in NW 0.9 mph 10 mph 66% 0 in 18 W/m2
06:21 44.4 °F 33.8 °F 30 in NNW 2 mph 3 mph 66% 0 in 19 W/m2
06:27 44.4 °F 33.8 °F 30 in NE 0.9 mph 8 mph 66% 0 in 23 W/m2
06:32 44.4 °F 34.2 °F 30 in NNW 2.9 mph 7 mph 67% 0 in 28 W/m2
06:37 44.4 °F 34.2 °F 30 in ENE 0.9 mph 4 mph 67% 0 in 32 W/m2
06:42 44.4 °F 34.2 °F 30 in NNW 0.9 mph 7 mph 67% 0 in 33 W/m2
06:47 44.4 °F 34.2 °F 30 in WNW 2 mph 4 mph 67% 0 in 33 W/m2
06:52 44.4 °F 34.2 °F 30 in ENE 0.9 mph 8 mph 67% 0 in 35 W/m2
06:57 44.4 °F 33.8 °F 30 in NW 4 mph 4 mph 66% 0 in 39 W/m2
07:02 44.4 °F 34.2 °F 30 in North 2.9 mph 6 mph 67% 0 in 40 W/m2
07:07 44.4 °F 34.2 °F 30 in NNW 2.9 mph 8 mph 67% 0 in 42 W/m2
07:12 44.6 °F 34.3 °F 30 in North 4.9 mph 5 mph 67% 0 in 46 W/m2
07:17 44.8 °F 34.5 °F 30 in SSE 0.9 mph 8 mph 67% 0 in 47 W/m2
07:22 44.8 °F 34.5 °F 30 in WNW 2.9 mph 3 mph 67% 0 in 49 W/m2
07:27 45 °F 34.3 °F 30 in NE 0.9 mph 4 mph 66% 0 in 51 W/m2
07:32 45.1 °F 34.9 °F 30 in NE 0.9 mph 1 mph 67% 0 in 53 W/m2
07:37 45.1 °F 34.5 °F 30 in North 0.9 mph 4 mph 66% 0 in 54 W/m2
07:42 45.3 °F 35.1 °F 30 in WNW 4 mph 4 mph 67% 0 in 56 W/m2
07:47 45.7 °F 35.1 °F 30 in West 2.9 mph 4 mph 66% 0 in 62 W/m2
07:52 45.9 °F 35.6 °F 30 in WNW 2.9 mph 9 mph 67% 0 in 232 W/m2
07:57 46.2 °F 35.4 °F 30 in Calm   3 mph 66% 0 in 255 W/m2
08:02 46.8 °F 36 °F 30 in East 0.9 mph 9 mph 66% 0 in 267 W/m2
08:07 47.1 °F 36 °F 30 in NNE 2.9 mph 5 mph 65% 0 in 279 W/m2
08:12 47.3 °F 36.1 °F 30 in WNW 2 mph 6 mph 65% 0 in 292 W/m2
08:17 47.7 °F 36.1 °F 30 in North 2.9 mph 5 mph 64% 0 in 308 W/m2
08:22 48 °F 36.5 °F 30 in East 2 mph 9 mph 64% 0 in 322 W/m2
08:27 48 °F 36 °F 30 in WNW 0.9 mph 4 mph 63% 0 in 334 W/m2
08:32 48.2 °F 36.7 °F 30 in WNW 8.1 mph 8 mph 64% 0 in 345 W/m2
08:37 48.4 °F 36.7 °F 30 in NE 0.9 mph 6 mph 64% 0 in 362 W/m2
08:42 48.7 °F 37 °F 30 in ENE 0.9 mph 4 mph 64% 0 in 371 W/m2
08:47 49.3 °F 37.2 °F 30 in NNW 0.9 mph 6 mph 63% 0 in 387 W/m2
08:52 49.3 °F 36.9 °F 30 in ENE 6 mph 9 mph 62% 0 in 408 W/m2
08:57 49.5 °F 37 °F 30 in WSW 0.9 mph 2 mph 62% 0 in 420 W/m2
09:03 49.8 °F 37.4 °F 30 in NW 2 mph 9 mph 62% 0 in 429 W/m2
09:08 50.4 °F 37.8 °F 30 in NW 0.9 mph 3 mph 62% 0 in 441 W/m2
09:13 50.7 °F 37.8 °F 30 in North 4 mph 7 mph 61% 0 in 459 W/m2
09:18 50.7 °F 37.8 °F 30 in Calm   9 mph 61% 0 in 471 W/m2
09:23 51.1 °F 38.1 °F 30 in NW 4 mph 8 mph 61% 0 in 487 W/m2
09:28 51.4 °F 37.9 °F 30 in ENE 2 mph 6 mph 60% 0 in 496 W/m2
09:33 52 °F 38.5 °F 30 in NNW 2 mph 4 mph 60% 0 in 512 W/m2
09:38 52.5 °F 38.1 °F 30 in NE 0.9 mph 4 mph 58% 0 in 522 W/m2
09:43 53.1 °F 38.7 °F 30 in WNW 0.9 mph 5 mph 58% 0 in 536 W/m2
09:48 53.1 °F 38.3 °F 30 in ENE 4 mph 10 mph 57% 0 in 543 W/m2
09:53 53.2 °F 38.8 °F 30 in ENE 2.9 mph 8 mph 58% 0 in 555 W/m2
09:58 53.8 °F 38.8 °F 30 in WSW 4.9 mph 10 mph 57% 0 in 566 W/m2
10:03 53.8 °F 38.5 °F 30 in ESE 2 mph 5 mph 56% 0 in 584 W/m2
10:08 54.1 °F 38.8 °F 30 in NW 6.9 mph 8 mph 56% 0 in 594 W/m2
10:14 54.3 °F 39 °F 30 in West 2.9 mph 9 mph 56% 0 in 79 W/m2
10:19 54.7 °F 39.7 °F 30 in North 8.1 mph 8 mph 57% 0 in 125 W/m2
10:24 55 °F 38.7 °F 30 in WSW 0.9 mph 5 mph 54% 0 in 626 W/m2
10:29 55.6 °F 39.2 °F 30 in NNW 2.9 mph 6 mph 54% 0 in 635 W/m2
10:34 55.8 °F 38.8 °F 30 in East 4 mph 6 mph 53% 0 in 647 W/m2
10:39 55.9 °F 39 °F 30 in NE 2.9 mph 7 mph 53% 0 in 656 W/m2
10:44 56.3 °F 38.8 °F 30 in NE 8.9 mph 10 mph 52% 0 in 666 W/m2
10:49 56.7 °F 38.7 °F 30.1 in NNE 4.9 mph 11 mph 51% 0 in 675 W/m2
10:54 56.7 °F 38.7 °F 30.1 in ENE 4.9 mph 11 mph 51% 0 in 682 W/m2
10:59 56.7 °F 38.3 °F 30.1 in NE 6 mph 10 mph 50% 0 in 691 W/m2
11:04 56.7 °F 38.7 °F 30.1 in NE 6 mph 9 mph 51% 0 in 703 W/m2
11:09 57 °F 39 °F 30 in East 2 mph 4 mph 51% 0 in 710 W/m2
11:14 57.6 °F 39 °F 30.1 in SW 4.9 mph 13 mph 50% 0 in 722 W/m2
11:19 57.6 °F 39 °F 30.1 in NNW 2 mph 6 mph 50% 0 in 729 W/m2
11:24 57.6 °F 39 °F 30.1 in NNW 2.9 mph 12 mph 50% 0 in 735 W/m2
11:29 57.7 °F 39.2 °F 30.1 in ENE 2 mph 6 mph 50% 0 in 742 W/m2
11:34 58.1 °F 39 °F 30.1 in East 0.9 mph 9 mph 49% 0 in 751 W/m2
11:39 58.5 °F 39.9 °F 30.1 in WNW 6 mph 11 mph 50% 0 in 756 W/m2
11:44 58.6 °F 39.6 °F 30.1 in ESE 0.9 mph 5 mph 49% 0 in 758 W/m2
11:49 58.6 °F 39.6 °F 30.1 in NW 6.9 mph 7 mph 49% 0 in 770 W/m2
11:54 59 °F 39.9 °F 30.1 in NE 2.9 mph 8 mph 49% 0 in 777 W/m2
12:00 59.2 °F 40.6 °F 30.1 in ENE 6.9 mph 11 mph 50% 0 in 786 W/m2
12:05 59.2 °F 39.6 °F 30.1 in NE 2.9 mph 5 mph 48% 0 in 788 W/m2
12:10 59.4 °F 39.7 °F 30.1 in NW 4.9 mph 6 mph 48% 0 in 796 W/m2
12:15 59.5 °F 39.9 °F 30.1 in SSW 2.9 mph 6 mph 48% 0 in 800 W/m2
12:20 59.5 °F 39.9 °F 30.1 in NE 0.9 mph 4 mph 48% 0 in 802 W/m2
12:25 59.7 °F 40.5 °F 30.1 in NNW 4.9 mph 9 mph 49% 0 in 809 W/m2
12:30 59.9 °F 40.6 °F 30.1 in SW 2 mph 4 mph 49% 0 in 812 W/m2
12:35 59.9 °F 40.6 °F 30.1 in East 2 mph 6 mph 49% 0 in 816 W/m2
12:40 60.1 °F 40.3 °F 30.1 in East 8.1 mph 10 mph 48% 0 in 817 W/m2
12:45 60.3 °F 39.9 °F 30.1 in NE 8.9 mph 9 mph 47% 0 in 821 W/m2
12:51 60.4 °F 40.1 °F 30.1 in ENE 2 mph 10 mph 47% 0 in 821 W/m2
12:56 60.8 °F 41 °F 30.1 in ENE 4.9 mph 7 mph 48% 0 in 824 W/m2
13:01 61 °F 40.6 °F 30.1 in SSW 2.9 mph 6 mph 47% 0 in 828 W/m2
13:06 61.3 °F 41.5 °F 30.1 in WNW 0.9 mph 7 mph 48% 0 in 830 W/m2
13:11 61.3 °F 39.7 °F 30.1 in SE 2.9 mph 9 mph 45% 0 in 831 W/m2
13:16 61.5 °F 42.3 °F 30.1 in NW 2 mph 2 mph 49% 0 in 831 W/m2
13:21 61.9 °F 41.9 °F 30.1 in ENE 0.9 mph 8 mph 48% 0 in 831 W/m2
13:26 62.2 °F 41.2 °F 30.1 in East 4 mph 8 mph 46% 0 in 830 W/m2
13:31 62.4 °F 40.8 °F 30.1 in ESE 4 mph 4 mph 45% 0 in 840 W/m2
13:36 62.4 °F 39.6 °F 30.1 in South 2 mph 4 mph 43% 0 in 833 W/m2
13:41 62.1 °F 40.5 °F 30.1 in East 4 mph 7 mph 45% 0 in 831 W/m2
13:46 62.1 °F 39.9 °F 30.1 in South 0.9 mph 5 mph 44% 0 in 831 W/m2
13:51 62.4 °F 40.8 °F 30.1 in North 4.9 mph 10 mph 45% 0 in 837 W/m2
13:56 62.6 °F 40.5 °F 30.1 in NNW 2 mph 8 mph 44% 0 in 838 W/m2
14:01 63 °F 40.6 °F 30.1 in NW 4 mph 6 mph 44% 0 in 831 W/m2
14:06 63 °F 39.6 °F 30.1 in ESE 0.9 mph 4 mph 42% 0 in 831 W/m2
14:11 63 °F 40.1 °F 30.1 in NW 4 mph 4 mph 43% 0 in 828 W/m2
14:16 63.1 °F 40.8 °F 30.1 in NNE 2 mph 2 mph 44% 0 in 833 W/m2
14:21 63.5 °F 39.9 °F 30.1 in WSW 2.9 mph 5 mph 42% 0 in 821 W/m2
14:26 63 °F 38.8 °F 30.1 in WNW 2.9 mph 7 mph 41% 0 in 812 W/m2
14:31 62.6 °F 39.2 °F 30.1 in NNW 2.9 mph 10 mph 42% 0 in 810 W/m2
14:36 62.8 °F 39.4 °F 30.1 in North 2 mph 8 mph 42% 0 in 812 W/m2
14:41 62.6 °F 38.5 °F 30.1 in NW 4 mph 10 mph 41% 0 in 835 W/m2
14:46 62.8 °F 39.4 °F 30.1 in NE 4 mph 8 mph 42% 0 in 810 W/m2
14:51 63 °F 40.6 °F 30.1 in WSW 0.9 mph 3 mph 44% 0 in 796 W/m2
14:57 63.1 °F 39 °F 30.1 in NW 2.9 mph 8 mph 41% 0 in 789 W/m2
15:02 63.3 °F 38.7 °F 30.1 in NNW 6 mph 6 mph 40% 0 in 791 W/m2
15:07 63.3 °F 39.2 °F 30.1 in South 2 mph 3 mph 41% 0 in 784 W/m2
15:12 63.3 °F 38.7 °F 30.1 in West 4 mph 9 mph 40% 0 in 773 W/m2
15:17 63.7 °F 39.6 °F 30.1 in NNW 2.9 mph 4 mph 41% 0 in 770 W/m2
15:22 63.7 °F 38.3 °F 30.1 in South 2.9 mph 9 mph 39% 0 in 765 W/m2
15:27 63.7 °F 39.6 °F 30.1 in NNW 6 mph 8 mph 41% 0 in 756 W/m2
15:32 63.7 °F 40.1 °F 30.1 in West 2.9 mph 6 mph 42% 0 in 752 W/m2
15:37 63.7 °F 39.6 °F 30.1 in NW 2 mph 3 mph 41% 0 in 737 W/m2
15:42 64 °F 39.9 °F 30.1 in NW 2.9 mph 5 mph 41% 0 in 728 W/m2
15:47 63.9 °F 39.7 °F 30.1 in WNW 4 mph 9 mph 41% 0 in 722 W/m2
15:52 63.7 °F 40.1 °F 30.1 in NE 4 mph 5 mph 42% 0 in 714 W/m2
15:57 64.2 °F 40.6 °F 30.1 in ESE 6 mph 8 mph 42% 0 in 701 W/m2
16:02 64.2 °F 39.4 °F 30.1 in ENE 2 mph 7 mph 40% 0 in 694 W/m2
16:07 64.6 °F 39.7 °F 30.1 in West 6 mph 11 mph 40% 0 in 684 W/m2
16:12 64.6 °F 39.7 °F 30.1 in NNE 0.9 mph 3 mph 40% 0 in 668 W/m2
16:17 64.6 °F 39 °F 30.1 in Calm   9 mph 39% 0 in 659 W/m2
16:22 64.8 °F 39.9 °F 30.1 in WNW 2.9 mph 8 mph 40% 0 in 656 W/m2
16:27 65.1 °F 40.8 °F 30.1 in NNE 2 mph 9 mph 41% 0 in 642 W/m2
16:32 65.1 °F 38.8 °F 30.1 in WNW 2.9 mph 4 mph 38% 0 in 633 W/m2
16:38 64.9 °F 39.4 °F 30.1 in SE 0.9 mph 7 mph 39% 0 in 622 W/m2
16:43 65.1 °F 40.3 °F 30.1 in ENE 4.9 mph 9 mph 40% 0 in 608 W/m2
16:48 64.9 °F 40.1 °F 30.1 in East 2 mph 4 mph 40% 0 in 596 W/m2
16:53 65.1 °F 39.6 °F 30.1 in ESE 2.9 mph 9 mph 39% 0 in 589 W/m2
16:58 64.9 °F 38.7 °F 30.1 in ENE 4 mph 6 mph 38% 0 in 578 W/m2
17:03 64.8 °F 37.9 °F 30.1 in ESE 4 mph 7 mph 37% 0 in 570 W/m2
17:08 64.8 °F 39.2 °F 30.1 in North 2.9 mph 4 mph 39% 0 in 555 W/m2
17:13 65.7 °F 38.7 °F 30.1 in North 0.9 mph 5 mph 37% 0 in 545 W/m2
17:18 65.8 °F 38.1 °F 30.1 in ENE 0.9 mph 1 mph 36% 0 in 536 W/m2
17:23 65.8 °F 38.1 °F 30.1 in ENE 2.9 mph 5 mph 36% 0 in 520 W/m2
17:28 65.8 °F 38.8 °F 30.1 in ENE 2 mph 6 mph 37% 0 in 512 W/m2
17:33 65.5 °F 37.8 °F 30.1 in ESE 4 mph 9 mph 36% 0 in 503 W/m2
17:38 65.5 °F 39.2 °F 30.1 in Calm   2 mph 38% 0 in 483 W/m2
17:43 65.7 °F 37.2 °F 30.1 in NNE 2 mph 4 mph 35% 0 in 471 W/m2
17:48 65.7 °F 37.9 °F 30.1 in Calm   1 mph 36% 0 in 457 W/m2
17:53 65.8 °F 39.6 °F 30.1 in East 0.9 mph 2 mph 38% 0 in 448 W/m2
17:58 66 °F 38.3 °F 30.1 in East 2.9 mph 4 mph 36% 0 in 436 W/m2
18:03 65.8 °F 38.1 °F 30.1 in North 0.9 mph 7 mph 36% 0 in 422 W/m2
18:08 65.8 °F 37.4 °F 30.1 in NNW 2 mph 5 mph 35% 0 in 408 W/m2
18:13 65.7 °F 39.4 °F 30.1 in SE 2.9 mph 4 mph 38% 0 in 397 W/m2
18:18 65.7 °F 38.7 °F 30.1 in SSE 0.9 mph 1 mph 37% 0 in 383 W/m2
18:23 65.8 °F 38.1 °F 30.1 in East 2 mph 6 mph 36% 0 in 366 W/m2
18:28 65.5 °F 37.8 °F 30.1 in East 2 mph 7 mph 36% 0 in 352 W/m2
18:33 65.5 °F 38.5 °F 30.1 in East 4 mph 7 mph 37% 0 in 339 W/m2
18:38 64.9 °F 38.7 °F 30.1 in SE 2 mph 4 mph 38% 0 in 323 W/m2
18:43 64.9 °F 38.7 °F 30.1 in North 2 mph 3 mph 38% 0 in 315 W/m2
18:48 65.5 °F 40.5 °F 30.1 in Calm   5 mph 40% 0 in 299 W/m2
18:53 65.5 °F 38.5 °F 30.1 in East 4 mph 4 mph 37% 0 in 288 W/m2
18:58 65.7 °F 39.4 °F 30.1 in NNW 2.9 mph 4 mph 38% 0 in 276 W/m2
19:03 65.5 °F 37.8 °F 30.1 in SSE 4 mph 7 mph 36% 0 in 258 W/m2
19:08 65.1 °F 37.6 °F 30.1 in SE 0.9 mph 4 mph 36% 0 in 250 W/m2
19:13 65.3 °F 36.9 °F 30.1 in NW 0.9 mph 6 mph 35% 0 in 232 W/m2
19:18 65.5 °F 37.8 °F 30.1 in NNW 2 mph 4 mph 36% 0 in 220 W/m2
19:23 65.5 °F 37.8 °F 30.1 in ENE 4 mph 4 mph 36% 0 in 204 W/m2
19:28 65.3 °F 37.6 °F 30.1 in WNW 2 mph 4 mph 36% 0 in 190 W/m2
19:33 65.1 °F 38.1 °F 30.1 in ESE 0.9 mph 3 mph 37% 0 in 174 W/m2
19:39 64.9 °F 38.7 °F 30.1 in Calm   2 mph 38% 0 in 160 W/m2
19:44 64.9 °F 39.4 °F 30.1 in East 0.9 mph 2 mph 39% 0 in 144 W/m2
19:49 64.9 °F 38.7 °F 30.1 in NW 4 mph 4 mph 38% 0 in 130 W/m2
19:54 64.9 °F 38.7 °F 30.1 in West 4 mph 4 mph 38% 0 in 116 W/m2
19:59 64.6 °F 38.5 °F 30.1 in NW 4 mph 5 mph 38% 0 in 102 W/m2
20:04 64 °F 38.7 °F 30.1 in WNW 2 mph 5 mph 39% 0 in 91 W/m2
20:09 63.9 °F 38.5 °F 30.1 in East 2 mph 2 mph 39% 0 in 79 W/m2
20:14 63.7 °F 38.3 °F 30.1 in North 2 mph 3 mph 39% 0 in 67 W/m2
20:19 63.9 °F 38.5 °F 30.1 in West 2.9 mph 8 mph 39% 0 in 58 W/m2
20:24 63.5 °F 38.7 °F 30.1 in North 2 mph 3 mph 40% 0 in 49 W/m2
20:29 63 °F 38.3 °F 30.1 in WNW 2.9 mph 8 mph 40% 0 in 40 W/m2
20:34 62.4 °F 38.5 °F 30.1 in NW 0.9 mph 3 mph 41% 0 in 32 W/m2
20:39 61.9 °F 37.9 °F 30.1 in NNW 4.9 mph 5 mph 41% 0 in 25 W/m2
20:44 61.3 °F 38.1 °F 30.1 in North 4 mph 6 mph 42% 0 in 21 W/m2
20:50 61 °F 38.3 °F 30.1 in West 0.9 mph 3 mph 43% 0 in 18 W/m2
20:55 60.8 °F 38.1 °F 30.1 in WNW 2 mph 5 mph 43% 0 in 14 W/m2
21:00 60.4 °F 38.5 °F 30.1 in NNW 2 mph 2 mph 44% 0 in 11 W/m2
21:05 60.1 °F 38.1 °F 30.1 in NW 2 mph 3 mph 44% 0 in 9 W/m2
21:10 59.7 °F 38.8 °F 30.1 in WSW 0.9 mph 2 mph 46% 0 in 7 W/m2
21:15 59.4 °F 38.7 °F 30.1 in NE 2 mph 5 mph 46% 0 in 5 W/m2
21:20 59 °F 38.3 °F 30.1 in Calm   2 mph 46% 0 in 0 W/m2
21:25 58.6 °F 39 °F 30.1 in Calm   2 mph 48% 0 in 0 W/m2
21:30 58.5 °F 39.4 °F 30.1 in SW 2 mph 2 mph 49% 0 in 0 W/m2
21:35 58.1 °F 39 °F 30.1 in Calm   2 mph 49% 0 in 0 W/m2
21:40 57.7 °F 38.7 °F 30.1 in Calm   1 mph 49% 0 in 0 W/m2
21:45 57.6 °F 38.5 °F 30.1 in Calm   2 mph 49% 0 in 0 W/m2
21:50 57 °F 39 °F 30.1 in WNW 0.9 mph 3 mph 51% 0 in 0 W/m2
21:55 56.8 °F 38.5 °F 30.1 in Calm   2 mph 50% 0 in 0 W/m2
22:00 56.8 °F 38.8 °F 30.1 in Calm   1 mph 51% 0 in 0 W/m2
22:05 56.5 °F 39.6 °F 30.1 in West 0.9 mph 1 mph 53% 0 in 0 W/m2
22:10 55.9 °F 38.5 °F 30.1 in WNW 0.9 mph 4 mph 52% 0 in 0 W/m2
22:15 55.8 °F 38.5 °F 30.1 in NNW 2 mph 2 mph 52% 0 in 0 W/m2
22:20 55.6 °F 38.3 °F 30.1 in West 2 mph 4 mph 52% 0 in 0 W/m2
22:25 55.2 °F 37.9 °F 30.1 in NW 2 mph 2 mph 52% 0 in 0 W/m2
22:30 55 °F 37.8 °F 30.1 in NW 0.9 mph 4 mph 52% 0 in 0 W/m2
22:35 54.9 °F 37.6 °F 30.1 in WNW 0.9 mph 3 mph 52% 0 in 0 W/m2
22:40 54.7 °F 37.9 °F 30.1 in West 0.9 mph 2 mph 53% 0 in 0 W/m2
22:45 54.5 °F 38.1 °F 30.1 in West 0.9 mph 3 mph 54% 0 in 0 W/m2
22:50 54 °F 37.8 °F 30.1 in ESE 0.9 mph 2 mph 54% 0 in 0 W/m2
22:55 53.6 °F 38.3 °F 30.1 in Calm   1 mph 56% 0 in 0 W/m2
23:00 53.2 °F 37.9 °F 30.2 in SSW 2 mph 2 mph 56% 0 in 0 W/m2
23:05 52.9 °F 37.6 °F 30.1 in SSW 2 mph 2 mph 56% 0 in 0 W/m2
23:10 52.3 °F 37.6 °F 30.2 in SSW 0.9 mph 2 mph 57% 0 in 0 W/m2
23:15 52.2 °F 37.4 °F 30.2 in WSW 2 mph 2 mph 57% 0 in 0 W/m2
23:20 51.8 °F 37.6 °F 30.2 in South 0.9 mph 2 mph 58% 0 in 0 W/m2
23:25 51.4 °F 37.6 °F 30.2 in South 0.9 mph 1 mph 59% 0 in 0 W/m2
23:30 51.3 °F 36.1 °F 30.2 in West 0.9 mph 7 mph 56% 0 in 0 W/m2
23:35 51.6 °F 35.6 °F 30.2 in WNW 4.9 mph 5 mph 54% 0 in 0 W/m2
23:40 52.2 °F 35.6 °F 30.2 in WSW 0.9 mph 3 mph 53% 0 in 0 W/m2
23:45 52.3 °F 35.8 °F 30.2 in SW 0.9 mph 2 mph 53% 0 in 0 W/m2
23:50 52.2 °F 36.5 °F 30.2 in Calm   4 mph 55% 0 in 0 W/m2
23:55 51.6 °F 36.5 °F 30.2 in SSW 0.9 mph 2 mph 56% 0 in 0 W/m2
Juneau County Weather
Compliments of Weather Underground - 2 mb